User: anonymous   Login
Location: Unspecified
(0.0000°N, 0.0000°E)
Time: 12:48:17
(UTC+00:00)
Language:

OBJECT-A - Orbit

View from above orbital plane
View from above orbital plane
View from above satellite
View from above satellite

Ground track
Ground track

The orbit data is extracted from the following two-line orbital elements,

1 40381U 15004A   17229.85783525 0.00000000  00000-0  00000-0 0    03
2 40381  97.3475 300.5471 0002000 356.8003   3.1995 15.27650029    04
Epoch (UTC): 17 August 2017 20:35:16
Eccentricity: 0.0002000
inclination: 97.3475°
perigee height: 481 km
apogee height: 484 km
right ascension of ascending node: 300.5471°
argument of perigee: 356.8003°
revolutions per day: 15.27650029
mean anomaly at epoch: 3.1995°
orbit number at epoch: 0

The dashed part of the orbit path shows where the satellite is in the earth's shadow,  

DLR